This demonstration page uses our WeatherBlox Daily Observations layout. Learn more.

Left ArrowRight Arrow

34.74481, -87.66753

Hourly Observations for May 14, 2022

Temp ( °F °C ) Dew Point ( °F °C ) Humidity (%) Winds ( mph kmh ) Pressure ( in mb ) Visibility ( mi km ) Precip ( " mm )
12:53 am 00:53 Clear 65 18.3 63 17.2 93 93 SE 3 6 29.93 1014 10 16 0.00 0.00
1:53 am 01:53 Clear 66 18.9 63 17.2 90 90 Calm 29.94 1014 10 16 0.00 0.00
2:53 am 02:53 Clear 65 18.3 63 17.2 93 93 Calm 29.94 1014 10 16 0.00 0.00
3:53 am 03:53 Mostly Clear 63 17.2 61 16.1 93 93 Calm 29.95 1014 10 16 0.00 0.00
4:53 am 04:53 Mostly Clear 64 17.8 62 16.7 93 93 WNW 7 11 29.96 1015 9 14 0.00 0.00
5:53 am 05:53 Cloudy 65 18.3 63 17.2 93 93 SE 3 6 29.96 1015 9 14 0.00 0.00
6:53 am 06:53 Partly Cloudy 68 20 64 17.8 87 87 Calm 29.98 1015 10 16 0.00 0.00
7:53 am 07:53 Sunny 70 21.1 64 17.8 82 82 SE 7 11 29.97 1015 10 16 0.00 0.00
8:53 am 08:53 Sunny 74 23.3 65 18.3 74 74 SE 6 9 29.97 1015 10 16 0.00 0.00
9:53 am 09:53 Sunny 78 25.6 66 18.9 67 67 SE 8 13 29.96 1015 10 16 0.00 0.00
10:53 am 10:53 Sunny 81 27.2 65 18.3 58 58 SW 8 13 29.96 1014 10 16 0.00 0.00
11:53 am 11:53 Mostly Cloudy 82 27.8 65 18.3 56 56 WNW 10 17 29.96 1015 10 16 0.00 0.00
12:53 pm 12:53 Sunny 84 28.9 61 16.1 46 46 SSW 8 13 29.94 1014 10 16 0.00 0.00
1:53 pm 13:53 Partly Cloudy 85 29.4 63 17.2 48 48 VRB 7 11 29.94 1014 10 16 0.00 0.00
2:53 pm 14:53 Partly Cloudy 86 30 63 17.2 46 46 SSW 7 11 29.91 1013 10 16 0.00 0.00
3:53 pm 15:53 Sunny 86 30 63 17.2 46 46 W 6 9 29.90 1012 10 16 0.00 0.00
4:53 pm 16:53 Sunny 86 30 63 17.2 46 46 WSW 8 13 29.88 1012 10 16 0.00 0.00
5:53 pm 17:53 Sunny 85 29.4 62 16.7 46 46 W 10 17 29.87 1011 10 16 0.00 0.00
6:53 pm 18:53 Sunny 83 28.3 64 17.8 53 53 WSW 8 13 29.87 1012 10 16 0.00 0.00
7:53 pm 19:53 Clear 79 26.1 64 17.8 60 60 W 5 7 29.89 1012 10 16 0.00 0.00
8:53 pm 20:53 Clear 75 23.9 64 17.8 69 69 Calm 29.91 1013 10 16 0.00 0.00
9:53 pm 21:53 Partly Cloudy 72 22.2 64 17.8 76 76 Calm 29.93 1014 10 16 0.00 0.00
10:53 pm 22:53 Clear 70 21.1 64 17.8 82 82 Calm 29.92 1013 10 16 0.00 0.00
11:53 pm 23:53 Clear 69 20.6 65 18.3 87 87 Calm 29.92 1013 10 16 0.00 0.00

Powered by AerisWeather